Regional Weather Roundup
Issued by NWS State College, PA

Home | Current Version | Previous Version | Text Only | Print | Product List | Glossary Off
Versions: 1 2 3 4 5 6 7 8 9 10 11 12 13 14 15 16 17 18 19 20 21 22 23 24 25 26 27 28 29 30 31 32 33 34 35 36 37 38 39 40 41 42 43 44 45 46 47 48 49 50

000
ASUS41 KCTP 301210
RWRCTP

REGIONAL WEATHER ROUNDUP
NATIONAL WEATHER SERVICE STATE COLLEGE PA
800 AM EDT MON MAR 30 2015

Note: "fair" indicates few or no clouds below 12,000 feet with no
significant weather and/or obstructions to visibility.

* = STATION THAT DOES NOT REPORT PRECIPITATION /E.G. RAIN...SNOW...ETC/
    THUNDER OR FOG.

PAZ002>004-007>009-013>016-020>023-029>032-301300-
WESTERN PENNSYLVANIA

CITY           SKY/WX    TMP DP  RH WIND       PRES   REMARKS
ERIE           CLOUDY    38  29  70 W13G26    29.82R
MEADVILLE      CLOUDY    37  29  72 W13       29.81R
FRANKLIN*      CLOUDY    36  28  75 W12G17    29.84R
NEW CASTLE     CLOUDY    40  32  73 W9        29.88R
BEAVER COUNTY  CLOUDY    39  32  75 W8G16     29.87R
BUTLER*        CLOUDY    39  36  87 W8        29.87R
PITTSBURGH INT CLOUDY    40  33  76 W12       29.88R
PITTSBURGH     CLOUDY    41  30  65 W16G24    29.87R
INDIANA*       CLOUDY    37  37 100 W9        29.87R
LATROBE        CLOUDY    39  39 100 W12       29.89R
WASHINGTON CO* CLOUDY    41  28  60 W13G23    29.92R
$$

PAZ004>006-010>012-017>019-024>028-033>037-041-042-045-046-049>053-301300-
CENTRAL PENNSYLVANIA

CITY           SKY/WX    TMP DP  RH WIND       PRES   REMARKS
BRADFORD       CLOUDY    34  29  82 W15G29    29.72R
DUBOIS         CLOUDY    38  32  79 W15G24    29.78R
CLEARFIELD     CLOUDY    37  34  89 SW12G17   29.78R
JOHNSTOWN      CLOUDY    36  34  92 W16       29.80R
ALTOONA        CLOUDY    40  34  79 W15G24    29.81R
STATE COLLEGE  CLOUDY    36  34  93 SW12      29.80R FOG
WILLIAMSPORT   CLOUDY    37  29  72 VRB3      29.81S
SELINSGROVE    CLOUDY    38  26  62 SW6       29.84S
FT INDIANTOWN  CLOUDY    35  28  78 N2        29.88S
CAPITAL CITY   CLOUDY    40  20  44 SW6       29.87F
HARRISBURG     CLOUDY    39  26  59 S5        29.87F
YORK           CLOUDY    40  22  48 VRB7      29.87S
$$

PAZ038>040-043-044-047-048-054-055-060>062-067>071-301300-
EASTERN PENNSYLVANIA

CITY           SKY/WX    TMP DP  RH WIND       PRES   REMARKS
SCRANTON       CLOUDY    37  26  64 SW7       29.81R
MOUNT POCONO   CLOUDY    30  24  78 SW10      29.79R
ALLENTOWN      CLOUDY    37  26  64 S7        29.88F
QUAKERTOWN*    CLOUDY    37  27  65 SW9       29.89F
READING        CLOUDY    39  25  57 S7        29.88F
LANCASTER      CLOUDY    39  24  55 SW8       29.88F
COATESVILLE    CLOUDY    36  28  75 S7        29.89F
POTTSTOWN      CLOUDY    37  27  67 VRB6      29.91F
BLUE BELL      CLOUDY    36  32  87 S7        29.90F
DOYLESTOWN     CLOUDY    34  29  82 S5        29.89F
WILLOW GROVE   NOT AVBL
NORTH PHILA    CLOUDY    37  29  72 SW9       29.94F
PHILADELPHIA   CLOUDY    36  31  82 S14       29.94F
$$


USA.gov is the U.S. government's official web portal to all federal, state and local government web resources and services.